Location: Gajan
(43.0218°N, 1.1244°E)
Time: 14:44:16
(UTC+00:00)

Cosmos 2322 - Pass Details

Date: 22 April 2021
Orbit: 843 x 852 km, 71.0° (Epoch: 12 May)

Event Time Altitude Azimuth Distance (km) Brightness Sun altitude
Rises 19:15:49 0° 332° (NNW) 3,409 7.8 -5.9°
Reaches altitude 10° 19:18:16 10° 330° (NNW) 2,470 7.0 -6.3°
Maximum altitude 19:23:53 67° 249° (WSW) 914 4.1 -7.2°
Drops below altitude 10° 19:29:28 10° 168° (SSE) 2,454 5.8 -8.1°
Sets 19:31:54 0° 166° (SSE) 3,386 6.5 -8.5°
